Regional Weather Roundup
Issued by NWS State College, PA

Home | Current Version | Previous Version | Text Only | Print | Product List | Glossary On
Versions: 1 2 3 4 5 6 7 8 9 10 11 12 13 14 15 16 17 18 19 20 21 22 23 24 25 26 27 28 29 30 31 32 33 34 35 36 37 38 39 40 41 42 43 44 45 46 47 48 49 50
000
ASUS41 KCTP 220910
RWRCTP

REGIONAL WEATHER ROUNDUP
NATIONAL WEATHER SERVICE STATE COLLEGE PA
500 AM EDT WED OCT 22 2014

Note: "fair" indicates few or no clouds below 12,000 feet with no
significant weather and/or obstructions to visibility.

* = STATION THAT DOES NOT REPORT PRECIPITATION /E.G. RAIN...SNOW...ETC/
    THUNDER OR FOG.

PAZ002>004-007>009-013>016-020>023-029>032-221000-
WESTERN PENNSYLVANIA

CITY           SKY/WX    TMP DP  RH WIND       PRES   REMARKS
ERIE           LGT RAIN  48  42  80 N15G22    30.14R
MEADVILLE      CLOUDY    45  42  89 N10G18    30.09R
FRANKLIN*      CLOUDY    45  39  81 N7        30.09R
NEW CASTLE       N/A     47  44  89 N7        30.11R
BEAVER COUNTY  NOT AVBL
BUTLER*        CLOUDY    46  39  76 N6        30.08R
PITTSBURGH INT CLOUDY    48  44  86 N14       30.06R
PITTSBURGH     CLOUDY    47  43  86 N8G17     30.04R
INDIANA*       CLOUDY    48  46  93 N5        30.06R
LATROBE        NOT AVBL
WASHINGTON CO* CLOUDY    46  45  93 N8        30.07R
$$

PAZ004>006-010>012-017>019-024>028-033>037-041-042-045-046-049>053-221000-
CENTRAL PENNSYLVANIA

CITY           SKY/WX    TMP DP  RH WIND       PRES   REMARKS
BRADFORD       CLOUDY    42  40  92 N8        30.05R
DUBOIS         CLOUDY    45  43  93 N13       30.02R
CLEARFIELD     CLOUDY    47  43  86 NE7       30.02R
JOHNSTOWN      CLOUDY    46  44  93 N8        29.98R
ALTOONA        CLOUDY    50  46  86 N8        29.98R
STATE COLLEGE  MOCLDY    49  45  88 N6        29.98R
WILLIAMSPORT   CLOUDY    54  46  74 N12G17    29.96R
SELINSGROVE    CLOUDY    54  47  77 N12G17    29.95R
FT INDIANTOWN  CLOUDY    55  54  99 NE9       29.91R
CAPITAL CITY   CLOUDY    56  48  74 N6        29.91R
HARRISBURG     CLOUDY    54  48  80 NW7       29.90R
YORK           LGT RAIN  51  50  96 W3        29.90S FOG
$$

PAZ038>040-043-044-047-048-054-055-060>062-067>071-221000-
EASTERN PENNSYLVANIA

CITY           SKY/WX    TMP DP  RH WIND       PRES   REMARKS
SCRANTON       CLOUDY    52  48  86 CALM      29.94R
MOUNT POCONO   CLOUDY    49  46  90 N8        29.92R
ALLENTOWN      CLOUDY    54  49  83 NE10      29.89S
QUAKERTOWN*    CLOUDY    54  50  87 N9        29.89R
READING        CLOUDY    54  48  80 N3        29.89R
LANCASTER      CLOUDY    54  48  80 N12       29.88R
COATESVILLE    CLOUDY    52  50  93 N6        29.87R
POTTSTOWN      CLOUDY    54  49  83 N8        29.89R
BLUE BELL      CLOUDY    54  52  94 CALM      29.85S
DOYLESTOWN     CLOUDY    52  51  97 N6        29.87R
WILLOW GROVE   NOT AVBL
NORTH PHILA    CLOUDY    57  49  74 N12       29.87R
PHILADELPHIA   CLOUDY    57  50  77 N13G24    29.84S
$$



USA.gov is the U.S. government's official web portal to all federal, state and local government web resources and services.